Vorticity
2 21 14 3 8 13 9 7 19 7 -2 7 2 -0 7 24 3 7 7 9 5 7 1 5 8 4 2 4 6 5 6 6 7 5 6 7 6 7 6 6 6 5 6 3
-0 -2 24 12 8 13 11 9 -3 10 -2 6 3 0 3 15 10 1 2 6 5 -6 2 10 6 5 11 6 7 7 6 7 5 6 6 6 6 6 7 6 6 9 4 13
6 8 20 10 5 16 12 14 13 18 5 2 17 18 10 11 -4 16 23 17 23 7 5 7 4 -1 -4 7 8 7 6 7 7 7 6 7 8 7 8 5 2 3 13 6
30 24 23 13 10 -7 19 8 8 7 21 23 14 10 8 11 18 13 11 7 2 4 2 -3 6 11 18 9 8 -4 3 6 6 6 7 7 7 7 6 4 7 1 8 7
24 18 11 15 12 -10 15 14 3 4 5 13 26 13 9 11 10 8 20 19 14 6 6 4 8 8 7 2 2 4 9 7 4 7 8 8 6 9 11 3 4 14 6 4
23 23 13 13 11 1 8 19 10 7 3 3 -2 10 19 4 10 7 10 4 2 2 3 14 10 13 4 1 11 8 6 7 8 -0 6 7 3 3 -0 11 3 7 14 10
47 24 15 13 13 -14 12 15 18 5 2 5 8 7 8 13 5 6 12 13 6 11 17 7 -4 -2 8 4 4 5 5 3 7 7 13 4 5 15 14 1 6 7 6 11
19 52 18 10 12 -21 12 4 16 17 4 5 5 9 10 8 7 12 8 10 8 1 -0 -0 5 8 2 8 8 7 7 9 12 8 3 1 12 6 2 1 9 12 9 12
16 21 52 8 10 -16 16 16 -7 24 18 -2 6 8 7 9 10 9 12 3 3 2 -2 16 11 6 17 7 6 11 10 7 3 7 16 15 7 6 4 -2 7 6 9 8
25 14 30 25 7 20 5 9 18 1 10 16 2 7 10 10 9 7 10 7 7 10 9 6 6 4 -0 6 3 4 13 10 6 -0 3 3 5 3 11 21 14 13 7 12
32 21 19 31 5 35 -25 15 -5 5 -1 18 7 6 8 11 7 7 12 6 4 9 10 6 2 8 11 20 5 8 4 -0 2 4 7 10 9 18 13 6 4 9 9 5
33 29 20 25 17 19 -32 18 1 10 8 10 21 3 5 6 7 8 6 5 7 4 4 3 3 6 4 11 8 6 7 7 3 4 9 10 7 11 8 7 8 8 9 10
29 35 24 30 31 -0 38 5 18 12 19 -9 1 8 10 6 11 9 7 7 5 5 7 8 8 6 9 7 2 5 2 6 3 8 12 10 11 6 3 5 10 10 11 12
3 29 32 30 60 16 11 -8 -2 19 14 -1 2 30 6 8 7 8 7 8 8 8 7 6 6 8 7 6 6 5 9 6 8 10 12 9 4 6 6 9 14 14 7 7
14 29 42 4 30 45 18 15 -12 -3 18 27 7 3 23 8 7 7 9 9 4 4 5 5 6 5 5 5 8 10 13 13 10 11 2 14 6 8 7 10 9 8 4 5
-5 18 30 -2 17 45 52 3 2 8 6 9 11 6 -5 16 11 5 7 7 8 6 4 4 4 3 5 8 10 9 11 12 5 2 16 6 7 5 2 7 11 6 6 7
29 6 27 -7 1 11 45 44 -16 3 5 15 22 12 5 8 36 4 5 9 9 8 6 6 9 10 10 10 9 5 7 15 18 6 4 1 6 8 5 7 13 10 6 5
25 16 23 19 28 9 8 25 64 -32 -2 17 25 17 7 5 1 5 15 10 1 8 8 8 10 9 9 4 17 18 11 -3 10 -2 18 9 8 6 12 2 20 8 3 0
18 21 15 19 22 19 21 6 77 3 -26 10 20 31 2 3 12 2 23 11 20 11 -7 -2 1 4 7 8 3 -4 1 3 15 4 11 10 8 15 8 13 12 5 4 12
20 15 14 17 28 -12 9 30 20 51 -8 7 20 38 34 11 8 10 8 8 1 6 5 22 17 29 -3 2 11 -1 12 4 11 6 9 8 15 11 13 12 5 8 12 11
27 -4 27 30 21 22 25 35 24 38 39 -26 11 22 25 35 19 17 -3 18 14 11 16 4 -0 6 9 10 12 13 8 9 15 17 15 12 15 18 9 4 11 9 13 10
-9 10 10 15 10 22 15 8 17 7 16 35 -11 41 17 20 22 14 14 9 9 12 13 14 18 21 20 15 24 24 19 18 14 15 15 15 6 1 10 11 11 13 8 8
20 5 10 13 16 14 31 14 12 9 25 55 26 -26 42 28 8 11 10 13 17 19 17 15 16 13 15 15 14 14 14 16 15 6 1 8 14 12 10 14 8 6 15 16
10 6 14 13 31 14 24 26 20 10 17 19 28 25 11 19 30 21 14 17 16 14 12 17 19 17 18 16 13 9 4 7 11 13 13 9 9 11 6 8 13 14 15 16
12 16 15 4 28 21 4 12 22 13 9 9 11 15 32 22 14 10 17 14 15 15 17 15 13 10 10 11 12 11 10 10 8 8 8 9 9 10 9 12 13 13 14 11
17 7 11 3 -3 15 18 16 2 30 25 15 16 16 18 12 14 16 14 11 6 8 9 9 11 14 13 10 9 11 12 13 12 11 10 9 7 6 7 9 9 9 10 13
13 10 15 21 18 27 21 16 12 11 13 14 18 17 18 19 14 12 12 14 18 13 11 9 12 17 18 14 10 8 6 5 2 4 7 9 10 11 13 14 23 20 17 16
Height
5693 5698 5705 5710 5712 5717 5723 5727 5732 5735 5737 5740 5743 5748 5754 5759 5761 5764 5764 5766 5769 5772 5773 5774 5774 5775 5773 5776 5775 5773 5772 5770 5771 5769 5767 5766 5764 5762 5759 5754 5751 5746 5741 5741
5668 5678 5684 5692 5696 5698 5703 5708 5715 5719 5720 5724 5730 5735 5738 5742 5747 5749 5749 5754 5757 5760 5762 5763 5764 5765 5766 5766 5765 5764 5764 5761 5760 5759 5758 5757 5755 5752 5749 5745 5741 5740 5731 5733
5642 5653 5663 5671 5680 5682 5683 5689 5695 5701 5703 5711 5715 5719 5723 5728 5733 5735 5735 5739 5743 5747 5750 5752 5752 5755 5755 5755 5755 5754 5752 5752 5751 5750 5747 5747 5746 5742 5739 5734 5730 5725 5728 5718
5613 5625 5638 5649 5659 5663 5665 5669 5678 5682 5686 5695 5700 5704 5707 5713 5718 5719 5723 5726 5733 5736 5737 5739 5740 5743 5744 5744 5743 5743 5742 5742 5741 5739 5736 5734 5734 5732 5728 5725 5719 5712 5716 5707
5583 5598 5609 5626 5638 5645 5642 5651 5659 5665 5672 5679 5681 5686 5693 5702 5705 5706 5711 5715 5722 5721 5724 5728 5728 5730 5731 5730 5732 5732 5732 5731 5729 5730 5726 5723 5723 5722 5717 5715 5709 5702 5699 5698
5556 5572 5586 5604 5617 5624 5621 5631 5640 5645 5654 5660 5666 5673 5683 5688 5689 5691 5697 5704 5705 5707 5716 5715 5716 5718 5717 5718 5721 5720 5720 5720 5717 5716 5716 5711 5712 5712 5708 5703 5698 5693 5688 5684
5534 5545 5563 5578 5593 5602 5604 5611 5617 5623 5633 5640 5651 5659 5665 5670 5677 5678 5683 5688 5692 5700 5701 5703 5703 5705 5705 5707 5709 5709 5709 5708 5704 5701 5702 5697 5701 5700 5696 5690 5686 5682 5677 5671
5516 5524 5537 5553 5567 5581 5586 5594 5600 5605 5612 5627 5635 5640 5648 5657 5660 5665 5670 5676 5682 5684 5687 5688 5689 5691 5694 5697 5697 5698 5698 5696 5693 5688 5688 5685 5687 5686 5682 5676 5674 5669 5663 5658
5496 5503 5512 5528 5543 5558 5566 5577 5582 5588 5593 5607 5619 5625 5632 5639 5645 5652 5657 5662 5665 5669 5672 5673 5673 5678 5683 5683 5685 5688 5688 5685 5683 5679 5676 5669 5673 5673 5668 5663 5661 5655 5650 5645
5471 5482 5492 5504 5520 5534 5545 5560 5566 5569 5574 5589 5600 5607 5617 5625 5631 5637 5643 5647 5650 5656 5657 5659 5662 5665 5670 5669 5672 5677 5676 5673 5671 5668 5663 5659 5665 5658 5654 5650 5647 5640 5636 5632
5451 5461 5471 5484 5499 5513 5524 5542 5550 5551 5557 5565 5582 5593 5601 5608 5614 5621 5630 5634 5634 5640 5643 5648 5650 5653 5657 5656 5658 5661 5661 5660 5661 5656 5651 5650 5651 5646 5642 5638 5632 5628 5624 5619
5434 5444 5453 5466 5482 5494 5508 5528 5533 5537 5540 5548 5562 5575 5583 5592 5600 5605 5609 5617 5623 5628 5628 5631 5636 5639 5641 5644 5643 5647 5647 5648 5645 5643 5642 5639 5636 5632 5629 5625 5620 5616 5612 5606
5422 5429 5440 5450 5466 5480 5491 5508 5518 5521 5528 5535 5542 5559 5569 5576 5586 5592 5596 5603 5609 5614 5619 5621 5623 5623 5626 5628 5633 5633 5635 5633 5630 5629 5631 5626 5622 5619 5616 5612 5607 5603 5598 5593
5413 5419 5428 5440 5450 5460 5470 5488 5501 5506 5514 5518 5528 5543 5551 5560 5568 5576 5582 5589 5594 5599 5602 5605 5608 5610 5614 5615 5618 5621 5620 5618 5619 5617 5618 5613 5611 5607 5603 5599 5594 5590 5585 5580
5406 5412 5418 5430 5437 5444 5457 5470 5484 5495 5500 5506 5516 5523 5536 5546 5554 5561 5568 5573 5579 5584 5588 5591 5596 5597 5599 5601 5603 5605 5609 5607 5604 5604 5603 5600 5598 5593 5589 5585 5581 5577 5573 5568
5397 5402 5411 5420 5427 5437 5445 5458 5473 5483 5490 5496 5503 5510 5523 5533 5539 5546 5553 5558 5563 5569 5575 5578 5580 5584 5585 5584 5587 5594 5594 5594 5593 5590 5589 5587 5584 5580 5576 5573 5568 5564 5559 5555
5391 5397 5402 5410 5419 5427 5435 5448 5459 5470 5478 5485 5490 5494 5507 5519 5524 5531 5538 5544 5549 5555 5558 5562 5567 5570 5569 5569 5574 5579 5580 5580 5578 5576 5575 5572 5569 5566 5562 5559 5555 5550 5546 5541
5385 5390 5397 5403 5411 5418 5429 5437 5446 5455 5467 5474 5477 5483 5494 5505 5512 5520 5526 5531 5536 5540 5543 5549 5553 5555 5553 5554 5563 5566 5566 5566 5564 5562 5559 5557 5555 5552 5549 5545 5541 5537 5533 5528
5381 5386 5392 5399 5405 5416 5425 5428 5434 5446 5458 5462 5467 5477 5483 5491 5501 5508 5515 5519 5521 5525 5529 5535 5538 5538 5537 5545 5548 5549 5549 5549 5548 5546 5544 5541 5539 5537 5534 5531 5527 5523 5519 5513
5379 5385 5392 5397 5403 5411 5416 5424 5431 5437 5445 5452 5458 5467 5475 5481 5490 5497 5504 5508 5511 5512 5518 5521 5521 5524 5529 5532 5533 5534 5534 5533 5531 5529 5528 5526 5524 5522 5519 5517 5513 5509 5504 5499
5382 5387 5391 5396 5402 5408 5413 5420 5425 5428 5435 5445 5454 5459 5464 5469 5477 5485 5489 5493 5496 5498 5504 5508 5508 5513 5517 5519 5519 5518 5517 5515 5514 5513 5512 5511 5509 5507 5505 5502 5498 5494 5490 5485
5384 5387 5391 5395 5399 5403 5407 5411 5416 5422 5431 5441 5450 5452 5457 5461 5466 5471 5477 5480 5484 5486 5492 5493 5493 5500 5501 5502 5501 5500 5499 5498 5498 5497 5497 5496 5495 5493 5490 5487 5484 5480 5475 5471
5383 5386 5390 5394 5397 5400 5403 5408 5415 5422 5427 5435 5442 5447 5449 5452 5457 5462 5466 5468 5471 5475 5477 5478 5482 5484 5485 5485 5485 5485 5485 5485 5485 5484 5484 5482 5480 5478 5476 5473 5469 5465 5460 5456
5386 5388 5391 5394 5396 5401 5404 5408 5413 5419 5424 5428 5431 5437 5444 5446 5450 5453 5455 5458 5462 5462 5465 5467 5469 5469 5471 5472 5473 5473 5473 5473 5472 5471 5469 5468 5466 5464 5461 5457 5453 5449 5446 5442
5387 5390 5393 5396 5398 5401 5403 5406 5409 5413 5417 5421 5424 5429 5436 5440 5442 5444 5446 5448 5450 5452 5453 5454 5456 5458 5459 5459 5459 5460 5460 5459 5458 5457 5455 5453 5451 5449 5446 5443 5439 5436 5433 5431
5389 5393 5396 5398 5401 5402 5403 5405 5408 5410 5413 5417 5420 5423 5428 5431 5434 5436 5436 5439 5441 5442 5443 5444 5446 5446 5447 5447 5447 5447 5447 5446 5445 5444 5442 5440 5437 5435 5432 5429 5426 5423 5421 5419
5393 5395 5398 5400 5402 5403 5405 5407 5408 5409 5411 5414 5416 5419 5422 5426 5428 5430 5431 5431 5432 5433 5434 5435 5436 5436 5437 5437 5436 5437 5436 5435 5433 5431 5429 5426 5424 5421 5418 5415 5413 5410 5408 5406